| time (UTC) | temp C | wind direction | speed KPH | gust KPH | rain 1hr cm | rain 24hr cm | rain mn cm | humidity % | barometer mb |
| 20260504044519 | 5 | 162 | 0.0 | 0.0 | 0.00 | 0.00 | 0.00 | 64 | 1012.1 |
| 20260504043010 | 5 | 156 | 0.0 | 3.2 | 0.00 | 0.00 | 0.00 | 66 | 1012.0 |
| 20260504041511 | 4 | 126 | 0.0 | 0.0 | 0.00 | 0.00 | 0.00 | 70 | 1011.9 |
| 20260504040002 | 3 | 162 | 0.0 | 0.0 | 0.00 | 0.00 | 0.00 | 74 | 1011.9 |
| 20260504034501 | 3 | 162 | 0.0 | 0.0 | 0.00 | 0.00 | 0.00 | 73 | 1011.8 |
| 20260504033100 | 3 | 163 | 0.0 | 0.0 | 0.00 | 0.00 | 0.00 | 70 | 1011.7 |
| 20260504031559 | 4 | 163 | 0.0 | 0.0 | 0.00 | 0.00 | 0.00 | 68 | 1011.7 |
| 20260504030059 | 5 | 163 | 0.0 | 0.0 | 0.00 | 0.00 | 0.00 | 67 | 1011.7 |
| 20260504024603 | 5 | 163 | 0.0 | 0.0 | 0.00 | 0.00 | 0.00 | 64 | 1011.8 |
| 20260504023058 | 6 | 163 | 0.0 | 0.0 | 0.00 | 0.00 | 0.00 | 63 | 1011.9 |
| 20260504021557 | 6 | 180 | 0.0 | 0.0 | 0.00 | 0.00 | 0.00 | 61 | 1011.9 |
| 20260504020057 | 6 | 188 | 0.0 | 0.0 | 0.00 | 0.00 | 0.00 | 59 | 1011.7 |
| 20260504014556 | 7 | 188 | 0.0 | 0.0 | 0.00 | 0.00 | 0.00 | 56 | 1011.6 |
| 20260504013113 | 8 | 188 | 0.0 | 0.0 | 0.00 | 0.00 | 0.00 | 52 | 1011.5 |
| 20260504011556 | 8 | 188 | 0.0 | 0.0 | 0.00 | 0.00 | 0.00 | 48 | 1011.4 |
| 20260504010101 | 10 | 188 | 0.0 | 0.0 | 0.00 | 0.00 | 0.00 | 43 | 1011.4 |
| 20260504004607 | 11 | 188 | 0.0 | 1.6 | 0.00 | 0.00 | 0.00 | 40 | 1011.3 |
| 20260504003053 | 11 | 182 | 0.0 | 4.8 | 0.00 | 0.00 | 0.00 | 39 | 1011.2 |
| 20260504001552 | 12 | 188 | 3.2 | 14.5 | 0.00 | 0.00 | 0.00 | 37 | 1011.0 |
| 20260504000051 | 12 | 227 | 1.6 | 16.1 | 0.00 | 0.00 | 0.00 | 36 | 1011.0 |
| 20260503234550 | 13 | 255 | 3.2 | 11.3 | 0.00 | 0.00 | 0.00 | 35 | 1011.0 |
| 20260503233052 | 13 | 225 | 8.0 | 17.7 | 0.00 | 0.00 | 0.00 | 34 | 1010.9 |
| 20260503231549 | 13 | 217 | 6.4 | 22.5 | 0.00 | 0.00 | 0.00 | 33 | 1010.9 |
| 20260503230054 | 14 | 232 | 3.2 | 16.1 | 0.00 | 0.00 | 0.00 | 34 | 1010.9 |
| 20260503224547 | 14 | 241 | 8.0 | 20.9 | 0.00 | 0.00 | 0.00 | 32 | 1010.9 |
| 20260503223046 | 14 | 228 | 9.7 | 24.1 | 0.00 | 0.00 | 0.00 | 34 | 1010.8 |
| 20260503221545 | 14 | 250 | 9.7 | 19.3 | 0.00 | 0.00 | 0.00 | 31 | 1010.9 |
| 20260503220045 | 14 | 250 | 3.2 | 17.7 | 0.00 | 0.00 | 0.00 | 33 | 1010.9 |
| 20260503214547 | 14 | 267 | 6.4 | 22.5 | 0.00 | 0.00 | 0.00 | 33 | 1010.9 |
| 20260503213043 | 14 | 235 | 6.4 | 14.5 | 0.00 | 0.00 | 0.00 | 33 | 1010.7 |
| 20260503211543 | 14 | 238 | 4.8 | 16.1 | 0.00 | 0.00 | 0.00 | 32 | 1010.8 |
| 20260503210042 | 14 | 211 | 9.7 | 19.3 | 0.00 | 0.00 | 0.00 | 32 | 1010.9 |
| 20260503204540 | 15 | 222 | 9.7 | 22.5 | 0.00 | 0.00 | 0.00 | 30 | 1010.8 |
| 20260503203042 | 15 | 238 | 11.3 | 30.6 | 0.00 | 0.00 | 0.00 | 31 | 1011.0 |
| 20260503201533 | 14 | 206 | 17.7 | 33.8 | 0.00 | 0.00 | 0.00 | 31 | 1011.1 |
| 20260503200031 | 14 | 251 | 11.3 | 24.1 | 0.00 | 0.00 | 0.00 | 31 | 1011.3 |
| 20260503194533 | 14 | 245 | 14.5 | 25.7 | 0.00 | 0.00 | 0.00 | 33 | 1011.3 |
| 20260503193027 | 13 | 277 | 1.6 | 20.9 | 0.00 | 0.00 | 0.00 | 32 | 1011.7 |
| 20260503191534 | 13 | 242 | 11.3 | 24.1 | 0.00 | 0.00 | 0.00 | 30 | 1012.0 |
| 20260503190024 | 13 | 217 | 4.8 | 24.1 | 0.00 | 0.00 | 0.00 | 34 | 1012.0 |
| 20260503184522 | 13 | 229 | 12.9 | 25.7 | 0.00 | 0.00 | 0.00 | 32 | 1012.1 |
| 20260503183020 | 13 | 244 | 3.2 | 30.6 | 0.00 | 0.00 | 0.00 | 33 | 1012.1 |
| 20260503181519 | 13 | 228 | 4.8 | 16.1 | 0.00 | 0.00 | 0.00 | 35 | 1012.4 |
| 20260503180024 | 13 | 236 | 4.8 | 17.7 | 0.00 | 0.00 | 0.00 | 37 | 1012.4 |
| 20260503174513 | 13 | 275 | 4.8 | 29.0 | 0.00 | 0.00 | 0.00 | 32 | 1012.6 |
| 20260503173012 | 12 | 243 | 3.2 | 22.5 | 0.00 | 0.00 | 0.00 | 34 | 1012.7 |
| 20260503171510 | 13 | 267 | 3.2 | 24.1 | 0.00 | 0.00 | 0.00 | 34 | 1012.8 |
| 20260503160115 | 11 | 268 | 6.4 | 22.5 | 0.00 | 0.00 | 0.00 | 38 | 1013.6 |
| 20260503081544 | 3 | 219 | 3.2 | 9.7 | 0.00 | 0.00 | 0.00 | 62 | 1013.3 |
| 20260503071541 | 3 | 316 | 3.2 | 8.0 | 0.00 | 0.00 | 0.00 | 62 | 1013.1 |
| 20260503054534 | 4 | 259 | 3.2 | 9.7 | 0.00 | 0.08 | 0.00 | 59 | 1012.9 |
| 20260503053024 | 4 | 229 | 3.2 | 8.0 | 0.00 | 0.08 | 0.00 | 58 | 1013.0 |
| 20260503051516 | 5 | 234 | 0.0 | 6.4 | 0.00 | 0.08 | 0.00 | 55 | 1013.1 |
| 20260503050015 | 5 | 255 | 0.0 | 9.7 | 0.00 | 0.08 | 0.00 | 56 | 1013.2 |